[[{"header":{"parameterUnit":"m.s-1","parameterCategory":1,"la1":30.2991,"la2":30.254,"lo1":-89.0895,"lo2":-89.0444,"dy":0.0017,"dx":0.0017,"nx":28,"ny":28,"refTime":"2024-02-02T09:00:00:Z","depth":0,"parameterNumber":2,"parameterNumberName":"U-component_of_WINDS"},"data":[0,0,0,0,0,0,0,0,0,0,0,0,0,0,0,0,0,0,0,0,0,0,0,0,0,0,0,0,0,0,0,0,0,0,0,0,0,0,0,0,0,0,0,0,0,0,0,0,0,0,0,0,0,0,0,0,0,0,-1.0129,-1.0128,0,-1.005,-1.0049,-1.0048,-0.9975,-0.9974,-0.9973,-0.9972,-0.989,-0.9889,-0.9888,0,0,0,0,0,0,0,0,0,0,0,0,0,-1.0215,-1.0214,-1.0129,-1.0128,-1.0127,-1.005,-1.0049,-1.0048,-0.9975,-0.9974,-0.9973,-0.9972,-0.9891,-0.9889,-0.9888,0,0,0,0,0,0,0,0,0,0,0,0,0,-1.0161,-1.0214,-1.0129,-1.0081,-1.0076,-1.0051,-1.0049,-1.0048,-0.9975,-0.9974,-0.9972,-0.9971,-0.9891,-0.9889,-0.9887,-0.9903,0,0,-0.9881,-0.9881,0,0,0,0,0,0,0,0,-1.0165,-1.0158,-1.0089,-1.0084,-1.0079,-1.0021,-1.005,-0.9999,-0.9975,-1.0013,-0.9972,-0.997,-0.9935,-0.9929,-0.9917,-0.9899,-0.9895,-0.9881,-0.988,-0.9879,-0.9879,0,0,0,0,0,0,0,-1.0168,-1.0161,-1.0098,-1.0088,-1.0082,-1.0063,-1.0054,-1.004,-0.9983,-1.001,-1.0004,-0.9996,-0.9932,-0.992,-0.9915,-0.9894,-0.9881,-0.988,-0.9878,-0.9878,-0.9885,-0.9887,0,0,0,0,0,0,-1.0179,-1.0165,-1.01,-1.0095,-1.0119,-1.0063,-1.0053,-1.0041,-0.9983,-0.9973,-0.9997,-0.9993,-0.9924,-0.9917,-0.9912,-0.9926,-0.9879,-0.9877,-0.9876,-0.9884,-0.9886,-0.9887,0,0,0,0,0,0,-1.0182,-1.0174,-1.0103,-1.0129,-1.0118,-1.0063,-1.005,-1.004,-1.0028,-0.9973,-0.9963,-0.9996,-0.9922,-0.9915,-0.9906,-0.9923,-0.9876,-0.9875,-0.9882,-0.9884,-0.9886,-0.9956,0,0,0,0,0,0,-1.0184,-1.0176,-1.0181,-1.0129,-1.0117,-1.0099,-1.0051,-1.0039,-1.0025,-1.0018,-0.9969,-0.9959,-0.9921,-0.9909,-0.9904,-0.9919,-0.9873,-0.9881,-0.9883,-0.9886,-0.9952,-0.996,-0.9967,0,0,0,0,0,-1.0188,-1.0203,-1.0182,-1.0174,-1.0123,-1.01,-1.0093,-1.0049,-1.0026,-1.0031,-0.9996,-0.9961,-0.9922,-0.9909,-0.9902,-0.9917,-0.9879,-0.9882,-0.9886,-0.9948,-0.9958,-0.9967,0,0,0,0,0,0,-1.0257,-1.0195,-1.0171,-1.017,-1.0141,-1.0088,-1.0092,-1.0061,-1.0037,-1.0032,-0.9978,-0.9967,-0.9965,-0.994,-0.9927,-0.9929,-0.9896,-0.9898,-0.9946,-0.9955,-0.9962,-0.9968,-0.9871,0,0,0,0,0,-1.0273,-1.026,-1.0206,-1.0211,-1.0198,-1.0148,-1.0136,-1.0105,-1.0073,-1.006,-1.0024,-0.9994,-0.9975,-0.9963,-0.9943,-0.9948,-0.9936,-0.9955,-0.9963,-0.9969,-0.9972,-0.9973,-0.9981,-0.9897,-0.9897,-0.9897,0,0,-1.0304,-1.0269,-1.0264,-1.0224,-1.0198,-1.0186,-1.0138,-1.0127,-1.0118,-1.0058,-1.0048,-1.0021,-0.9984,-0.9982,-0.998,-0.9961,-0.9992,-0.9973,-0.9979,-0.9977,-0.9977,-0.9985,-0.9993,-0.99,-0.9899,-0.9899,0,0,-1.0355,-1.0327,-1.0328,-1.0303,-1.0265,-1.0231,-1.0232,-1.0184,-1.0164,-1.0153,-1.0108,-1.0096,-1.0064,-1.004,-1.0023,-1.0067,-1.0034,-1.0062,-1.0102,-1.0104,-1.0111,-1.0116,-1.0132,-1.0139,-1.0064,-1.0064,-1.0065,0,-1.0399,-1.0379,-1.0332,-1.0325,-1.0309,-1.0255,-1.0256,-1.0234,-1.019,-1.0181,-1.0161,-1.0121,-1.0092,-1.0084,-1.0095,-1.0083,-1.0082,-1.0067,-1.0114,-1.0119,-1.0123,-1.0138,-1.0144,-1.0068,-1.0068,-1.0067,-1.0067,0,-1.0435,-1.0423,-1.0428,-1.0388,-1.0373,-1.037,-1.0322,-1.0312,-1.0283,-1.0252,-1.0242,-1.0206,-1.0177,-1.0173,-1.0144,-1.0162,-1.0152,-1.0124,-1.0089,-1.0136,-1.0149,-1.0154,-1.0074,-1.0072,-1.0071,-1.007,0,0,-1.0527,-1.0463,-1.0466,-1.0447,-1.0401,-1.0391,-1.0385,-1.0358,-1.0351,-1.0323,-1.0317,-1.0292,-1.0266,-1.0248,-1.0215,-1.0217,-1.0255,-1.0188,-1.0187,-1.0203,-1.0274,-1.0296,-1.0303,-1.0233,-1.0234,-1.0234,-1.0277,0,-1.0571,-1.0558,-1.0517,-1.0516,-1.0504,-1.0454,-1.0449,-1.0421,-1.0392,-1.0378,-1.0346,-1.0329,-1.0296,-1.0284,-1.0284,-1.0251,-1.0269,-1.0247,-1.0227,-1.0227,-1.0238,-1.031,-1.0332,-1.0374,-1.0282,-1.0283,-1.0283,0,-1.062,-1.0596,-1.0596,-1.0551,-1.0545,-1.0541,-1.0513,-1.05,-1.0467,-1.0446,-1.0426,-1.039,-1.0382,-1.035,-1.0338,-1.0324,-1.0314,-1.0296,-1.0296,-1.0293,-1.0258,-1.0308,-1.0387,-1.0393,-1.0291,-1.029,-1.029,0,-1.0688,-1.0656,-1.0651,-1.0637,-1.0585,-1.0584,-1.0562,-1.0528,-1.0515,-1.0491,-1.0482,-1.0457,-1.0443,-1.0425,-1.0383,-1.0363,-1.0376,-1.034,-1.0359,-1.036,-1.0364,-1.0364,-1.0442,-1.0357,-1.0357,-1.0357,-1.0356,0,-1.0741,-1.0743,-1.0681,-1.0679,-1.0679,-1.0631,-1.0633,-1.0607,-1.0577,-1.0568,-1.0523,-1.0515,-1.0461,-1.0447,-1.0415,-1.041,-1.0404,-1.0387,-1.0379,-1.0392,-1.0394,-1.0384,-1.038,-1.0358,-1.0358,-1.0357,-1.0357,0,-1.0817,-1.0776,-1.0768,-1.072,-1.0708,-1.071,-1.0669,-1.0665,-1.0634,-1.0624,-1.0618,-1.057,-1.0552,-1.0509,-1.0479,-1.0457,-1.0462,-1.0446,-1.0473,-1.0468,-1.0489,-1.0488,-1.0564,-1.0571,-1.0481,-1.0482,-1.0483,0,-1.0854,-1.0854,-1.0806,-1.0798,-1.0778,-1.0764,-1.0751,-1.0704,-1.0692,-1.0655,-1.0656,-1.0634,-1.0615,-1.0589,-1.0551,-1.0528,-1.0511,-1.0539,-1.0507,-1.0521,-1.0512,-1.0513,-1.0513,-1.0546,-1.0548,-1.0549,-1.0549,0,-1.0924,-1.0904,-1.0886,-1.0863,-1.0848,-1.0827,-1.0803,-1.0798,-1.0746,-1.0734,-1.0716,-1.0701,-1.0672,-1.0651,-1.0623,-1.06,-1.0567,-1.056,-1.0563,-1.0576,-1.0593,-1.0585,-1.0493,-1.0558,-1.0557,-1.0557,-1.0556,-1.0556,-1.0981,-1.098,-1.0946,-1.0929,-1.0906,-1.0885,-1.0879,-1.0848,-1.0832,-1.0805,-1.0778,-1.0763,-1.073,-1.0689,-1.0669,-1.0656,-1.0639,-1.0643,-1.0645,-1.0647,-1.0653,-1.0595,-1.0651,-1.0651,-1.065,-1.065,-1.065,0,-1.1049,-1.1026,-1.101,-1.0979,-1.0965,-1.0935,-1.0908,-1.0898,-1.0886,-1.0858,-1.0841,-1.082,-1.08,-1.0762,-1.0738,-1.0736,-1.072,-1.0731,-1.0731,-1.0727,-1.0669,-1.0669,-1.0745,-1.0745,-1.0745,-1.0745,-1.0745,-1.0745,-1.1083,-1.1079,-1.1056,-1.104,-1.1016,-1.1001,-1.0988,-1.0969,-1.0947,-1.0926,-1.091,-1.0885,-1.0853,-1.0828,-1.0809,-1.0798,-1.0792,-1.0808,-1.0793,-1.074,-1.0731,-1.0722,-1.0722,-1.0807,-1.0807,-1.0851,-1.0852,-1.0852]},{"header":{"parameterUnit":"m.s-1","parameterCategory":1,"la1":30.2991,"la2":30.254,"lo1":-89.0895,"lo2":-89.0444,"dy":0.0017,"dx":0.0017,"nx":28,"ny":28,"refTime":"2024-02-02T09:00:00:Z","depth":0,"parameterNumber":3,"parameterNumberName":"V-component_of_WINDS"},"data":[0,0,0,0,0,0,0,0,0,0,0,0,0,0,0,0,0,0,0,0,0,0,0,0,0,0,0,0,0,0,0,0,0,0,0,0,0,0,0,0,0,0,0,0,0,0,0,0,0,0,0,0,0,0,0,0,0,0,0.5519,0.5518,0,0.5488,0.5487,0.5487,0.5475,0.5475,0.5475,0.5476,0.5444,0.5443,0.5442,0,0,0,0,0,0,0,0,0,0,0,0,0,0.5568,0.5567,0.5519,0.5518,0.5518,0.5488,0.5487,0.5487,0.5475,0.5475,0.5475,0.5476,0.5444,0.5443,0.5442,0,0,0,0,0,0,0,0,0,0,0,0,0,0.5543,0.5567,0.5519,0.5508,0.5507,0.5488,0.5487,0.5487,0.5475,0.5475,0.5475,0.5476,0.5444,0.5443,0.5442,0.543,0,0,0.5437,0.5437,0,0,0,0,0,0,0,0,0.5544,0.5541,0.551,0.5509,0.5508,0.5486,0.5493,0.5468,0.5475,0.5487,0.5476,0.5476,0.5458,0.5455,0.5449,0.5429,0.5428,0.5437,0.5437,0.5436,0.5436,0,0,0,0,0,0,0,0.5546,0.5542,0.5507,0.551,0.5508,0.5505,0.5502,0.5488,0.5472,0.5486,0.5485,0.5482,0.5457,0.545,0.5448,0.5427,0.5437,0.5436,0.5435,0.5435,0.5397,0.5397,0,0,0,0,0,0,0.5549,0.5544,0.5507,0.5506,0.5527,0.5504,0.5501,0.5493,0.5472,0.5469,0.5482,0.5481,0.5453,0.545,0.5447,0.5433,0.5436,0.5435,0.5434,0.5397,0.5397,0.5397,0,0,0,0,0,0,0.555,0.5546,0.5509,0.5524,0.5519,0.5503,0.5494,0.5492,0.5485,0.5469,0.5466,0.5478,0.5453,0.5449,0.5435,0.5431,0.5434,0.5433,0.5397,0.5397,0.5397,0.5404,0,0,0,0,0,0,0.5552,0.5547,0.5542,0.5524,0.5519,0.5497,0.5494,0.5491,0.5483,0.5482,0.5465,0.5462,0.5453,0.5437,0.5433,0.543,0.5432,0.5397,0.5397,0.5397,0.5404,0.5404,0.5404,0,0,0,0,0,0.5554,0.5545,0.5542,0.5538,0.5513,0.5497,0.5493,0.5483,0.5483,0.5478,0.5468,0.5462,0.5433,0.5436,0.5432,0.5427,0.5398,0.5397,0.5397,0.5404,0.5404,0.5404,0,0,0,0,0,0,0.5563,0.5543,0.5539,0.5524,0.5512,0.5495,0.5489,0.5483,0.5471,0.5471,0.5458,0.5455,0.5441,0.5433,0.5437,0.5416,0.5415,0.5414,0.5422,0.5421,0.5422,0.5424,0.543,0,0,0,0,0,0.5563,0.5552,0.5535,0.5524,0.5518,0.5505,0.5497,0.549,0.5477,0.5472,0.5461,0.5448,0.5436,0.5428,0.5416,0.5403,0.5399,0.5398,0.5398,0.5398,0.5397,0.539,0.5389,0.5395,0.5395,0.5395,0,0,0.5564,0.5551,0.5545,0.5526,0.5515,0.5504,0.55,0.5488,0.548,0.547,0.5456,0.5447,0.5433,0.5419,0.5413,0.5412,0.5395,0.5398,0.5398,0.5397,0.5389,0.5389,0.5388,0.5395,0.5395,0.5395,0,0,0.5559,0.5549,0.5538,0.5528,0.5513,0.5504,0.5502,0.5485,0.5479,0.5465,0.5457,0.5447,0.5427,0.5417,0.5409,0.5401,0.5396,0.5398,0.5398,0.5391,0.539,0.539,0.5387,0.5387,0.5397,0.5397,0.5397,0,0.5562,0.5544,0.5534,0.5522,0.5514,0.5505,0.5495,0.5486,0.5468,0.5462,0.5461,0.5436,0.5425,0.5409,0.5407,0.5401,0.5398,0.54,0.5391,0.5391,0.539,0.5388,0.5387,0.5397,0.5397,0.5397,0.5397,0,0.5548,0.5537,0.553,0.5513,0.5504,0.5494,0.5481,0.5474,0.5468,0.5459,0.5445,0.5432,0.5417,0.5413,0.5407,0.5396,0.5396,0.5394,0.5393,0.539,0.5387,0.5386,0.5398,0.5398,0.5397,0.5397,0,0,0.5548,0.5526,0.5523,0.5516,0.5499,0.5489,0.5479,0.5464,0.5458,0.5446,0.5437,0.542,0.5417,0.5409,0.5401,0.5395,0.539,0.5393,0.5393,0.5393,0.5378,0.538,0.5379,0.5387,0.5387,0.5387,0.5379,0,0.5541,0.5521,0.5512,0.5496,0.5485,0.5477,0.5467,0.5456,0.5448,0.5437,0.5428,0.5417,0.5414,0.5409,0.5402,0.5392,0.5387,0.5393,0.5378,0.5378,0.5382,0.5378,0.538,0.5374,0.5378,0.5378,0.5378,0,0.553,0.5519,0.5502,0.5487,0.5482,0.5473,0.546,0.545,0.5437,0.5432,0.5422,0.5416,0.5404,0.5404,0.5388,0.5392,0.5386,0.538,0.5379,0.5377,0.5378,0.5376,0.5372,0.5371,0.5376,0.5376,0.5377,0,0.5532,0.5512,0.5499,0.5493,0.5475,0.5469,0.5462,0.5449,0.5441,0.5429,0.5424,0.5411,0.5404,0.5395,0.5385,0.5385,0.537,0.5369,0.5365,0.5365,0.5362,0.5362,0.5356,0.5358,0.5358,0.5358,0.5358,0,0.5525,0.5515,0.55,0.5492,0.5481,0.5471,0.546,0.5451,0.544,0.5431,0.5423,0.5414,0.5402,0.5392,0.5384,0.5372,0.5369,0.5364,0.5362,0.5365,0.5365,0.536,0.536,0.5357,0.5357,0.5358,0.5358,0,0.5525,0.5514,0.55,0.5484,0.548,0.5473,0.5459,0.5452,0.5443,0.5431,0.5428,0.5415,0.5403,0.5392,0.5375,0.537,0.5358,0.5356,0.5362,0.5361,0.5358,0.5359,0.5349,0.5347,0.535,0.535,0.535,0,0.5521,0.5514,0.5497,0.549,0.5483,0.5472,0.5464,0.5454,0.5446,0.5431,0.5425,0.5412,0.5402,0.5383,0.5371,0.5359,0.5356,0.5354,0.5354,0.5357,0.5356,0.5357,0.5356,0.5354,0.5354,0.5354,0.5354,0,0.5516,0.5511,0.55,0.5488,0.5479,0.5468,0.5458,0.5453,0.544,0.5432,0.5419,0.5411,0.5395,0.5382,0.5369,0.5361,0.5355,0.5354,0.5352,0.5355,0.5359,0.5357,0.5363,0.5354,0.5354,0.5354,0.5354,0.5354,0.5514,0.5507,0.5494,0.5483,0.5474,0.5464,0.5456,0.5447,0.5436,0.5422,0.5417,0.5404,0.5392,0.5373,0.5365,0.5355,0.5354,0.5352,0.5351,0.5351,0.5352,0.5361,0.5353,0.5353,0.5353,0.5353,0.5353,0,0.5508,0.55,0.5489,0.5475,0.5466,0.5462,0.545,0.5442,0.5431,0.5421,0.541,0.5396,0.5384,0.5372,0.536,0.5354,0.5351,0.5351,0.5351,0.535,0.5353,0.5356,0.5354,0.5354,0.5354,0.5354,0.5354,0.5354,0.5504,0.5492,0.5486,0.547,0.5461,0.5449,0.5443,0.5434,0.5425,0.541,0.54,0.5392,0.5381,0.5368,0.5357,0.5354,0.5349,0.535,0.5346,0.5349,0.535,0.535,0.5352,0.5349,0.5349,0.5344,0.5344,0.5344]}]]